TimeCDT,TemperatureF,Dew PointF,Humidity,Sea Level PressureIn,VisibilityMPH,Wind Direction,Wind SpeedMPH,Gust SpeedMPH,PrecipitationIn,Events,Conditions,WindDirDegrees,DateUTC
12:15 AM,55.6,45.1,68,30.09,10.0,NW,6.9,-,N/A,,Mostly Cloudy,320,2013-05-11 05:15:00
12:35 AM,59.0,45.5,61,30.10,10.0,NNW,9.2,-,N/A,,Clear,330,2013-05-11 05:35:00
12:55 AM,58.1,45.1,62,30.11,10.0,NNW,5.8,-,N/A,,Clear,340,2013-05-11 05:55:00
1:15 AM,57.2,45.3,65,30.11,10.0,NNW,8.1,-,N/A,,Clear,340,2013-05-11 06:15:00
1:35 AM,58.5,45.0,61,30.12,10.0,North,13.8,17.3,N/A,,Clear,350,2013-05-11 06:35:00
1:55 AM,59.0,43.9,57,30.13,10.0,North,15.0,18.4,N/A,,Scattered Clouds,350,2013-05-11 06:55:00
2:15 AM,58.3,41.9,54,30.13,10.0,North,16.1,23.0,N/A,,Scattered Clouds,350,2013-05-11 07:15:00
2:35 AM,57.4,41.0,54,30.15,10.0,North,16.1,21.9,N/A,,Clear,350,2013-05-11 07:35:00
2:55 AM,56.1,40.5,56,30.15,10.0,North,13.8,19.6,N/A,,Clear,350,2013-05-11 07:55:00
3:15 AM,55.0,40.6,58,30.17,10.0,North,11.5,-,N/A,,Clear,360,2013-05-11 08:15:00
3:35 AM,54.3,41.0,61,30.17,10.0,North,10.4,-,N/A,,Clear,360,2013-05-11 08:35:00
3:55 AM,52.9,41.0,64,30.18,10.0,North,8.1,-,N/A,,Clear,360,2013-05-11 08:55:00
4:15 AM,51.8,41.0,67,30.18,10.0,North,6.9,-,N/A,,Clear,350,2013-05-11 09:15:00
4:35 AM,50.9,41.2,69,30.19,10.0,North,8.1,-,N/A,,Clear,360,2013-05-11 09:35:00
4:55 AM,50.9,40.1,67,30.19,10.0,North,11.5,16.1,N/A,,Clear,350,2013-05-11 09:55:00
5:15 AM,49.6,39.4,68,30.20,10.0,North,6.9,-,N/A,,Clear,350,2013-05-11 10:15:00
5:35 AM,48.4,39.6,72,30.21,10.0,NNW,4.6,-,N/A,,Clear,340,2013-05-11 10:35:00
5:55 AM,47.7,39.2,72,30.23,10.0,NNW,3.5,-,N/A,,Clear,330,2013-05-11 10:55:00
6:15 AM,46.2,38.3,74,30.24,10.0,NNW,3.5,-,N/A,,Clear,330,2013-05-11 11:15:00
6:35 AM,45.7,38.1,75,30.25,10.0,NNW,5.8,-,N/A,,Clear,340,2013-05-11 11:35:00
6:55 AM,46.6,38.3,73,30.26,10.0,NNW,5.8,-,N/A,,Clear,330,2013-05-11 11:55:00
7:15 AM,46.2,38.5,74,30.27,10.0,NW,6.9,-,N/A,,Clear,320,2013-05-11 12:15:00
7:35 AM,47.8,36.0,63,30.28,10.0,North,10.4,-,N/A,,Clear,350,2013-05-11 12:35:00
7:55 AM,48.4,34.9,60,30.29,10.0,North,13.8,18.4,N/A,,Clear,350,2013-05-11 12:55:00
8:15 AM,49.3,34.9,58,30.30,10.0,North,8.1,16.1,N/A,,Clear,350,2013-05-11 13:15:00
8:35 AM,50.7,34.9,55,30.30,10.0,North,15.0,-,N/A,,Clear,360,2013-05-11 13:35:00
8:55 AM,51.8,34.0,51,30.30,10.0,North,10.4,17.3,N/A,,Clear,360,2013-05-11 13:55:00
9:15 AM,53.6,32.2,44,30.30,10.0,North,12.7,19.6,N/A,,Clear,350,2013-05-11 14:15:00
9:35 AM,54.5,28.8,37,30.31,10.0,NNW,12.7,18.4,N/A,,Clear,340,2013-05-11 14:35:00
9:55 AM,55.4,29.5,37,30.31,10.0,NNW,15.0,20.7,N/A,,Clear,340,2013-05-11 14:55:00
10:15 AM,56.3,28.4,34,30.31,10.0,North,19.6,27.6,N/A,,Clear,350,2013-05-11 15:15:00
10:35 AM,56.1,28.0,34,30.32,10.0,NNW,20.7,28.8,N/A,,Clear,340,2013-05-11 15:35:00
10:55 AM,56.1,28.4,35,30.32,10.0,NNW,24.2,31.1,N/A,,Clear,330,2013-05-11 15:55:00
11:15 AM,56.5,28.0,34,30.32,10.0,North,23.0,32.2,N/A,,Clear,350,2013-05-11 16:15:00
11:35 AM,57.2,29.5,35,30.32,10.0,North,20.7,27.6,N/A,,Clear,360,2013-05-11 16:35:00
11:55 AM,57.4,29.5,35,30.32,10.0,NNW,16.1,26.5,N/A,,Clear,340,2013-05-11 16:55:00
12:15 PM,57.9,28.6,33,30.32,10.0,NNW,23.0,28.8,N/A,,Clear,340,2013-05-11 17:15:00
12:35 PM,57.6,28.4,33,30.32,10.0,NNW,21.9,33.4,N/A,,Clear,340,2013-05-11 17:35:00
12:55 PM,58.1,29.3,33,30.32,10.0,NNW,21.9,31.1,N/A,,Clear,330,2013-05-11 17:55:00
1:15 PM,58.3,30.0,34,30.31,10.0,North,20.7,26.5,N/A,,Clear,350,2013-05-11 18:15:00
1:35 PM,58.3,26.8,30,30.31,10.0,North,19.6,31.1,N/A,,Clear,350,2013-05-11 18:35:00
1:55 PM,59.0,26.8,29,30.31,10.0,NNW,20.7,27.6,N/A,,Clear,330,2013-05-11 18:55:00
2:15 PM,59.0,25.3,28,30.31,10.0,NNW,20.7,34.5,N/A,,Clear,330,2013-05-11 19:15:00
2:35 PM,60.1,24.6,26,30.30,10.0,NNW,21.9,29.9,N/A,,Clear,340,2013-05-11 19:35:00
2:55 PM,59.9,22.3,24,30.30,10.0,NNW,18.4,29.9,N/A,,Clear,340,2013-05-11 19:55:00
3:15 PM,60.1,21.0,22,30.30,10.0,North,18.4,29.9,N/A,,Clear,350,2013-05-11 20:15:00
3:35 PM,60.4,19.8,21,30.30,10.0,North,17.3,29.9,N/A,,Clear,350,2013-05-11 20:35:00
3:55 PM,60.1,21.0,22,30.30,10.0,NW,10.4,21.9,N/A,,Clear,320,2013-05-11 20:55:00
4:15 PM,60.4,19.6,21,30.29,10.0,North,18.4,25.3,N/A,,Clear,350,2013-05-11 21:15:00
4:35 PM,60.8,19.6,20,30.28,10.0,North,11.5,23.0,N/A,,Clear,350,2013-05-11 21:35:00
4:55 PM,60.1,19.4,21,30.27,10.0,North,12.7,21.9,N/A,,Clear,350,2013-05-11 21:55:00
5:15 PM,60.1,17.1,19,30.27,10.0,North,11.5,20.7,N/A,,Clear,10,2013-05-11 22:15:00
5:35 PM,59.9,18.5,20,30.27,10.0,NNW,11.5,23.0,N/A,,Clear,340,2013-05-11 22:35:00
5:55 PM,60.3,18.1,20,30.27,10.0,North,13.8,20.7,N/A,,Clear,350,2013-05-11 22:55:00
6:15 PM,59.9,18.9,20,30.27,10.0,North,13.8,21.9,N/A,,Clear,360,2013-05-11 23:15:00
6:35 PM,59.4,18.0,20,30.26,10.0,North,10.4,21.9,N/A,,Clear,360,2013-05-11 23:35:00
6:55 PM,58.8,17.6,20,30.26,10.0,North,13.8,21.9,N/A,,Clear,350,2013-05-11 23:55:00
7:15 PM,58.5,18.7,21,30.26,10.0,North,12.7,17.3,N/A,,Clear,350,2013-05-12 00:15:00
7:35 PM,57.6,18.3,22,30.26,10.0,North,12.7,-,N/A,,Clear,350,2013-05-12 00:35:00
7:55 PM,56.7,18.3,22,30.25,10.0,North,10.4,-,N/A,,Clear,350,2013-05-12 00:55:00
8:15 PM,55.4,19.8,25,30.26,10.0,North,8.1,-,N/A,,Clear,360,2013-05-12 01:15:00
8:35 PM,52.5,23.5,32,30.26,10.0,North,4.6,-,N/A,,Clear,10,2013-05-12 01:35:00
9:15 PM,47.5,26.4,44,30.26,10.0,NNE,8.1,-,N/A,,Clear,20,2013-05-12 02:15:00
9:35 PM,46.6,26.1,45,30.26,10.0,NNE,5.8,-,N/A,,Clear,20,2013-05-12 02:35:00
9:55 PM,45.5,27.1,49,30.26,10.0,NNE,3.5,-,N/A,,Clear,30,2013-05-12 02:55:00
10:15 PM,43.0,27.3,54,30.26,10.0,North,3.5,-,N/A,,Clear,360,2013-05-12 03:15:00
10:35 PM,43.0,26.8,53,30.26,10.0,NE,6.9,-,N/A,,Clear,40,2013-05-12 03:35:00
10:55 PM,43.7,27.9,54,30.26,10.0,Calm,Calm,-,N/A,,Clear,0,2013-05-12 03:55:00
11:15 PM,39.0,29.3,68,30.26,10.0,Calm,Calm,-,N/A,,Clear,0,2013-05-12 04:15:00
11:35 PM,40.6,27.0,58,30.25,10.0,East,4.6,-,N/A,,Clear,80,2013-05-12 04:35:00
11:55 PM,44.2,25.3,47,30.25,10.0,NE,4.6,-,N/A,,Clear,50,2013-05-12 04:55:00